sat.trackr.live / text

‹ back to catalog

STARLINK-35672

NORAD 66394 · 2025-257Q

PAYLOAD ACTIVE UNKNOWN

§ Identity

Operator
Country
US
Launch date
2025-11-09
Launch site
AFETR
Launch vehicle
Mass (kg)
RCS (m²)

Purposes: comms

External: N2YO · Heavens-Above · Gunter

§ Orbital elements

Epoch: 2026-05-24T17:02:08.406528Z

Period
93.85 min
Inclination
53.1585°
Eccentricity
0.0001144
Mean motion
15.34399535 rev/d
Perigee alt
461.9 km
Apogee alt
463.5 km
Semi-major
6,840.8 km
B*
4.3442e-4
RAAN
223.1296°
Arg perigee
82.7974°
Mean anomaly
277.3159°
Rev number
3,138

§ Raw data

STARLINK-356721 66394U 25257Q   26144.70981952  .00014329  00000+0  43442-3 0  99952 66394  53.1585 223.1296 0001144  82.7974 277.3159 15.34399535 31385

JSON: /api/v1/satellites/66394 · /tle

For live sub-satellite position, see the globe view (requires WebGL).

§ Visibility from observer

Set your observer location to see the next 7 days of passes ≥ 10°. The values pass through the URL so the page stays shareable.

No JS? Fill the form by hand. The geolocation button needs JavaScript.